Location: Berlin
(42.3812°N, 71.6370°W)
Time: 13:33:38
(UTC+00:00)

IRS-1D - Visible Passes

Search period start: 14 February 2026 00:00
Search period end: 24 February 2026 00:00
Orbit: 737 x 810 km, 98.8° (Epoch: 13 February)

Date Brightness Start Highest point End Pass type
(mag) Time Alt. Az. Time Alt. Az. Time Alt. Az.
14 Feb 3.9 09:47:14 10° NNE 09:52:24 65° ESE 09:57:25 10° S visible
15 Feb 5.3 09:13:21 10° NE 09:17:54 31° E 09:22:20 10° SSE visible
15 Feb 4.2 10:52:23 10° N 10:56:59 33° WNW 11:01:29 10° SW visible
16 Feb 6.3 08:40:24 10° ENE 08:43:13 15° E 08:46:00 10° SE visible
16 Feb 3.4 10:17:41 10° N 10:22:50 68° WNW 10:27:50 10° SSW visible
17 Feb 4.1 09:43:24 10° NNE 09:48:30 59° ESE 09:53:27 10° S visible
18 Feb 5.5 09:09:35 10° NE 09:13:58 28° E 09:18:15 10° SSE visible
18 Feb 4.1 10:48:27 10° N 10:53:08 36° WNW 10:57:42 10° SW visible
19 Feb 6.4 08:36:54 10° ENE 08:39:16 13° E 08:41:36 10° ESE visible
19 Feb 3.4 10:13:49 10° N 10:18:57 74° WNW 10:23:57 10° SSW visible
20 Feb 4.2 09:39:34 10° NNE 09:44:36 53° E 09:49:29 10° S visible
21 Feb 5.6 09:05:51 10° NE 09:10:03 25° E 09:14:09 10° SSE visible
21 Feb 3.9 10:44:32 10° N 10:49:16 39° WNW 10:53:53 10° SW visible
22 Feb 6.5 08:33:32 10° ENE 08:35:18 12° E 08:37:03 10° ESE visible
22 Feb 3.4 10:09:57 10° NNE 10:15:04 81° WNW 10:20:03 10° SSW visible
23 Feb 4.4 09:35:45 10° NNE 09:40:40 48° E 09:45:29 10° S visible
